TimePST,TemperatureF,Dew PointF,Humidity,Sea Level PressureIn,VisibilityMPH,Wind Direction,Wind SpeedMPH,Gust SpeedMPH,PrecipitationIn,Events,Conditions,WindDirDegrees,DateUTC
12:34 AM,55.4,53.6,94,30.01,8.0,Calm,Calm,-,N/A,,Scattered Clouds,0,2012-12-06 08:34:00
12:43 AM,55.4,53.6,94,30.00,8.0,ENE,3.5,-,N/A,,Mostly Cloudy,60,2012-12-06 08:43:00
12:55 AM,57.0,54.0,89,30.03,9.0,Calm,Calm,-,N/A,,Overcast,0,2012-12-06 08:55:00
1:11 AM,57.2,53.6,88,30.00,9.0,Calm,Calm,-,N/A,,Overcast,0,2012-12-06 09:11:00
1:29 AM,57.2,53.6,88,30.00,9.0,ENE,5.8,-,N/A,,Overcast,70,2012-12-06 09:29:00
1:55 AM,57.9,54.0,87,30.02,8.0,ENE,3.5,-,N/A,,Overcast,70,2012-12-06 09:55:00
2:25 AM,57.2,55.4,94,29.99,7.0,ENE,3.5,-,N/A,,Overcast,60,2012-12-06 10:25:00
2:55 AM,57.9,54.0,87,30.01,8.0,East,4.6,-,N/A,,Overcast,80,2012-12-06 10:55:00
3:55 AM,57.9,55.0,90,30.00,7.0,ENE,5.8,-,N/A,,Overcast,70,2012-12-06 11:55:00
4:55 AM,57.9,55.0,90,29.98,4.0,NE,6.9,-,N/A,,Overcast,50,2012-12-06 12:55:00
5:27 AM,57.2,53.6,88,29.96,4.0,East,4.6,-,N/A,,Overcast,90,2012-12-06 13:27:00
5:55 AM,57.0,54.0,89,29.99,4.0,East,8.1,-,N/A,,Overcast,80,2012-12-06 13:55:00
6:24 AM,55.4,53.6,94,29.96,1.8,NE,8.1,-,N/A,,Overcast,50,2012-12-06 14:24:00
6:32 AM,55.4,53.6,94,29.96,1.2,NE,9.2,-,N/A,,Overcast,40,2012-12-06 14:32:00
6:38 AM,55.4,53.6,94,29.96,1.8,NE,5.8,-,N/A,,Overcast,50,2012-12-06 14:38:00
6:45 AM,55.4,53.6,94,29.96,2.5,ENE,6.9,-,N/A,,Overcast,60,2012-12-06 14:45:00
6:55 AM,55.9,53.1,90,29.99,3.0,ENE,6.9,-,N/A,,Overcast,60,2012-12-06 14:55:00
7:10 AM,55.4,53.6,94,29.97,2.0,NE,6.9,-,N/A,,Overcast,50,2012-12-06 15:10:00
7:19 AM,55.4,53.6,94,29.97,1.5,NE,8.1,-,N/A,,Overcast,50,2012-12-06 15:19:00
7:22 AM,55.4,53.6,94,29.97,2.0,NE,8.1,-,N/A,,Overcast,50,2012-12-06 15:22:00
7:55 AM,55.0,52.0,89,30.01,2.0,NE,6.9,-,N/A,,Overcast,50,2012-12-06 15:55:00
8:55 AM,57.0,53.1,87,30.01,2.0,ENE,4.6,-,N/A,,Overcast,60,2012-12-06 16:55:00
9:02 AM,57.2,53.6,88,29.99,5.0,ENE,4.6,-,N/A,,Overcast,60,2012-12-06 17:02:00
9:40 AM,60.8,55.4,82,29.99,5.0,Calm,Calm,-,N/A,,Haze,0,2012-12-06 17:40:00
9:55 AM,61.0,55.0,81,30.02,6.0,Calm,Calm,-,N/A,,Haze,0,2012-12-06 17:55:00
10:55 AM,63.0,57.0,81,30.01,7.0,Calm,Calm,-,N/A,,Mostly Cloudy,0,2012-12-06 18:55:00
11:33 AM,64.4,55.4,73,29.96,8.0,SSW,4.6,-,N/A,,Scattered Clouds,200,2012-12-06 19:33:00
11:55 AM,64.9,55.9,73,29.97,8.0,SW,5.8,-,N/A,,Partly Cloudy,230,2012-12-06 19:55:00
12:55 PM,64.9,57.0,75,29.94,7.0,SW,5.8,-,N/A,,Clear,220,2012-12-06 20:55:00
1:55 PM,66.0,57.0,73,29.92,7.0,WSW,4.6,-,N/A,,Clear,250,2012-12-06 21:55:00
2:55 PM,66.0,57.0,73,29.91,8.0,SSW,6.9,-,N/A,,Clear,210,2012-12-06 22:55:00
3:55 PM,64.9,55.9,73,29.91,9.0,SW,5.8,-,N/A,,Clear,230,2012-12-06 23:55:00
4:55 PM,63.0,55.9,78,29.91,9.0,Calm,Calm,-,N/A,,Clear,0,2012-12-07 00:55:00
5:55 PM,62.1,55.9,80,29.91,9.0,Calm,Calm,-,N/A,,Clear,0,2012-12-07 01:55:00
6:55 PM,60.1,55.0,83,29.93,8.0,Calm,Calm,-,N/A,,Clear,0,2012-12-07 02:55:00
7:55 PM,57.9,54.0,87,29.94,7.0,Calm,Calm,-,N/A,,Clear,0,2012-12-07 03:55:00
8:55 PM,57.0,53.1,87,29.95,5.0,Calm,Calm,-,N/A,,Clear,0,2012-12-07 04:55:00
9:55 PM,55.0,52.0,89,29.95,6.0,Calm,Calm,-,N/A,,Clear,0,2012-12-07 05:55:00
10:55 PM,54.0,51.1,90,29.94,5.0,Calm,Calm,-,N/A,,Clear,0,2012-12-07 06:55:00
11:55 PM,53.1,48.9,86,29.95,6.0,North,3.5,-,N/A,,Clear,360,2012-12-07 07:55:00